Location: Dallas(GA)
(33.9240°N, 84.8410°W)
Time: 21:53:13
(UTC-04:00)

N. Korean satellite - Pass Details

Date: 28 September 2020
Orbit: 453 x 505 km, 97.2° (Epoch: 25 October)

Event Time Altitude Azimuth Distance (km) Brightness Sun altitude
Rises 06:20:10 0° 30° (NNE) 2,560 10.8 -15.7°
Reaches altitude 10° 06:22:46 10° 50° (NE) 1,664 10.2 -15.2°
Maximum altitude 06:25:15 18° 95° (E) 1,239 9.7 -14.7°
Drops below altitude 10° 06:27:43 10° 139° (SE) 1,633 9.7 -14.2°
Sets 06:30:14 0° 159° (SSE) 2,494 10.4 -13.6°
